SL-16 DEB, 39714

Orbit data source: Space-Track

SL-16 DEB, 39714 is space debris in LEO originally from a launch on Fri, 25 Dec 1992 UTC launched from the Tyuratam Missile And Space Complex (TTMTR). Debris objects in space refer to the collection of defunct objects orbiting the Earth. Examples of debris include non-operational satellites, rocket bodies, and fragments generated from explosions, collisions, or faulty payload assembly.

Loading next visibility...
Identifier
39714, 1992-093KE
Orbit
LEO
Country
Flag of CISCIS
Related business
Manufacturer
Unknown
Mission
Spacecraft
Bus & Motor
Unknown
Mass
Unknown
Launch date (UTC)
1992-12-25 (33 years ago)
Launch vehicle
Unknown
Launch site
Tyuratam Missile And Space Complex (TTMTR)
Object type
Payload
Rocket body
Debris
Shape & HBR
Unknown shape, 0.1 m
Radar Cross Section
Small (<0.1 m²)

Expand to show TLE details & history
Last TLE update: 1 day ago

TLE from 1 day ago
0 SL-16 DEB
1 39714U 92093KE  25349.45186242  .00000439  00000-0  20007-3 0  9990
2 39714  71.0841  55.0902 0090522  69.4081 291.6729 14.24774966626431
Epoch: 2025-12-15T10:50Z
TLE epoch observation values (Epoch: 2025-12-15T10:50:40.913Z)
Latitude
0.00004°
Longitude
168.06951°
Altitude
788.146 km
Speed
7.472 km/s
True Right ascension
03h 40m 21s
True Declination
0° 00' 00"
Sunlit
Object was in full shadow at epoch
Visualization orbit readout
Latitude
Unknown
Longitude
Unknown
Altitude
Unknown
Speed
Unknown
Apparent Right ascension
Unknown
Apparent Declination
Unknown
Sunlit
N/A
Visualization observer readout
Local Sidereal Time
18:30:07
Azimuth
Unknown
Elevation
Unknown
Doppler factor
Unknown
Orbital elements
Apogee altitude
872.199 km
Perigee altitude
742.113 km
Semi-major axis
7,185.293 km
Eccentricity
0.00905
Inclination
71.0841°
RAAN
55.0902°
Arg. of periapsis
69.4081°
True anomaly
290.70493°
Mean anomaly
291.6729°
Eccentric anomaly
291.18931°
Mean motion
3.5635 °/min
Orbital period
101.02 mins
BSTAR
0.00020007
Loading maneuver chart data...
Computing Atmospheric mass density...
Loading historical data...
Loading historical data...
Loading historical data...
Loading historical data...
Loading historical data...
Loading historical data...
Loading historical data...

Documentation

Showing up to 5 results
|